Regional Weather Roundup
Issued by NWS

Home | Current Version | Previous Version | Text Only | Print | Product List | Glossary On
Versions: 1 2 3 4 5 6 7 8 9 10 11 12 13 14 15 16 17 18 19 20 21 22 23 24 25 26 27 28
000
ASUS44 KJAN 041310
RWRMS

MISSISSIPPI HOURLY WEATHER ROUNDUP
NATIONAL WEATHER SERVICE JACKSON MS
700 AM CST SUN DEC 04 2016

NOTE: "FAIR: INDICATES FEW OR NO CLOUDS BELOW 12,000 FEET WITH NO
SIGNIFICANT WEATHER AND/OR OBSTRUCTIONS TO VISIBILITY.

MSZ001>002-007>008-010>013-018>021-025>028-034>036-041400-
NORTHWEST MISSISSIPPI

CITY           SKY/WX    TMP DP  RH WIND       PRES   REMARKS
CLEVELAND      CLOUDY    46  46 100 E9        29.95R
GREENWOOD      CLOUDY    46  44  93 E8        29.95F
GREENVILLE     CLOUDY    46  42  86 E9        29.93S
OXFORD         LGT RAIN  43  41  93 E8G17     29.99F
WINONA         CLOUDY    44  44 100 E3        29.96S FOG
$$

MSZ003>006-009-014>017-022>024-029>033-037>039-041400-
NORTHEAST MISSISSIPPI

CITY           SKY/WX    TMP DP  RH WIND       PRES   REMARKS
COLUMBUS AFB   CLOUDY    46  44  91 E8        29.98S
GOLDN TRIANGLE CLOUDY    46  41  81 E12       29.93F FOG
STARKVILLE     CLOUDY    45  45 100 E3        29.99R
TUPELO         CLOUDY    46  43  89 NE6       30.00F
$$

MSZ040-058-041400-
CENTRAL MISSISSIPPI

CITY           SKY/WX    TMP DP  RH WIND       PRES   REMARKS
JACKSON INTL   CLOUDY    50  47  89 N5        29.94R
JACKSON HAWKNS CLOUDY    48  45  89 NE5       29.94R
MADISON        CLOUDY    45  45 100 CALM      29.93S
MERIDIAN KEY   CLOUDY    50  46  86 N6        29.98R
MERIDIAN NAS   CLOUDY    49  45  86 NW7       29.99R
VICKSBURG VKS  CLOUDY    48  46  93 CALM      29.91F FOG
$$

MSZ059>079-041400-
SOUTH MISSISSIPPI

CITY           SKY/WX    TMP DP  RH WIND       PRES   REMARKS
BROOKHAVEN     LGT RAIN N/A N/A N/A N6        29.93R
COLUMBIA       CLOUDY    52  52 100 NW7       29.93R
HATTIESBURG    MOCLDY    56  55  97 SE14      29.86F
LAUREL         PTSUNNY   52  52 100 CALM      29.91R
MCCOMB         CLOUDY    55  53  93 N7        29.91R
NATCHEZ        CLOUDY    48  45  87 NE3       29.92R
PINE BELT      CLOUDY    52  48  87 E6        29.90S
$$

MSZ080>082-041400-
COASTAL MISSISSIPPI

CITY           SKY/WX    TMP DP  RH WIND       PRES   REMARKS
BAY ST LOUIS   CLOUDY    59  55  88 CALM      29.91
BILOXI         CLOUDY    63  63 100 E6        29.91F
PASCAGOULA     RAIN      65  63  93 W5        29.93R FOG
GULFPORT       CLOUDY    64  63  96 NE3       29.91F
$$

LAZ007>009-015>016-023>026-041400-
NORTHEAST LOUISIANA

CITY           SKY/WX    TMP DP  RH WIND       PRES   REMARKS
BASTROP        CLOUDY    46  45  98 E3        29.92R
TALLULAH/VBURG CLOUDY    47  46  97 NE7       29.93R FOG
VIDALIA        LGT RAIN  49  48  97 NE3       29.95S
$$




USA.gov is the U.S. government's official web portal to all federal, state and local government web resources and services.